[Iaude] MPEC P06: 2024 OV1 [a=1.96,e=0.44,i=10.6,H=22.8]

mpec at cfa.harvard.edu mpec at cfa.harvard.edu
Thu Aug 1 06:53:49 EDT 2024


M.P.E.C. 2024-P06                                Issued 2024 August 1, 10:52 UT

     The Minor Planet Electronic Circulars contain information on unusual
         minor planets, routine data on comets and natural satellites,
         and occasional editorial announcements.  They are published
    on behalf of Division F of the International Astronomical Union by the
          Minor Planet Center, Smithsonian Astrophysical Observatory,
                          Cambridge, MA 02138, U.S.A.
			  
             Prepared using the Tamkin Foundation Computer Network

                              MPC at CFA.HARVARD.EDU
            URL https://www.minorplanetcenter.net/    ISSN 1523-6714

                                    2024 OV1                                    


Observations:
     K24O01V* C2024 07 29.37615617 48 36.660+12 17 51.49         20.72wXEP006F51
     K24O01V  C2024 07 29.38774817 48 37.611+12 18 52.75         21.18wXEP006F51
     K24O01V  C2024 07 29.39943617 48 38.588+12 19 54.49         21.17wXEP006F51
     K24O01V  C2024 07 29.48639517 48 46.226+12 27 30.92         20.47GVEP006F51
     K24O01V  C2024 07 29.48704417 48 46.294+12 27 34.23         20.47GVEP006F51
     K24O01V !C2024 07 30.20631 17 50 07.03 +13 30 45.5          21.6 GVEP006673
     K24O01V !C2024 07 30.20918 17 50 07.29 +13 31 00.3                VEP006673
     K24O01V KC2024 07 30.85480917 51 18.78 +14 27 19.5          19.9 GVEP006L01
     K24O01V KC2024 07 30.85649517 51 18.96 +14 27 28.9          19.9 GVEP006L01
     K24O01V KC2024 07 30.85818317 51 19.10 +14 27 37.6          19.7 GVEP006L01
     K24O01V KC2024 07 30.85987117 51 19.35 +14 27 46.4          19.9 GVEP006L01
     K24O01V KC2024 07 30.86155617 51 19.45 +14 27 54.9          20.0 GVEP006L01
     K24O01V !C2024 07 31.23595 17 52 01.91 +15 00 40.7          20.4 GVEP006673
     K24O01V !C2024 07 31.23883 17 52 02.20 +15 00 55.4                VEP006673
     K24O01V KB2024 07 31.94291 17 53 23.75 +16 01 38.5          20.3 GVEP006204
     K24O01V KB2024 07 31.95848 17 53 25.37 +16 02 58.6                VEP006204
     K24O01V KC2024 08 01.19329317 53 53.88 +16 23 17.8          20.8 GVEP006H21
     K24O01V !C2024 08 01.20028 17 53 56.24 +16 23 59.8          20.3 GVEP006673
     K24O01V KC2024 08 01.20040417 53 54.60 +16 23 54.1          20.7 GVEP006H21
     K24O01V KC2024 08 01.20233217 53 54.80 +16 24 03.8          20.6 GVEP006H21
     K24O01V !C2024 08 01.20377 17 53 56.58 +16 24 17.5                VEP006673
     K24O01V KC2024 08 01.20426017 53 55.00 +16 24 13.7                VEP006H21

Observer details:
204 Schiaparelli Observatory.  Observer L. Buzzi.  0.84-m f/3.5 reflector +
    CMO.
673 Table Mountain Observatory, Wrightwood.  Observer J. Pittichova.  1.0-m
    f/15 reflector + CCD.
F51 Pan-STARRS 1, Haleakala.  Observers J. Herman, T. Lowe, P. Minguez, A.
    Schultz, I. Smith.  Measurers K. Chambers, T. de Boer, J. Fairlamb, H.
    Gao, M. Huber, C.-C. Lin, E. Magnier, Y. Ramanjooloo, R. Wainscoat, R.
    Weryk.  1.8-m Ritchey-Chretien + CCD.
H21 Astronomical Research Observatory, Westfield.  Observer R. Holmes.
    Measurers T. Linder, R. Holmes.  0.76-m f/3.0 astrograph + CCD.
L01 Visnjan Observatory, Tican.  Observers K. Korlevic, L. Poropat.  Measurer
    K. Korlevic.  1.0-m f/2.9 reflector + CCD.

Orbital elements:
2024 OV1                                                 Earth MOID = 0.1288 AU
Epoch 2024 Oct. 17.0 TT = JDT 2460600.5                 Veres                   
M  20.72295              (2000.0)            P               Q                  
n   0.35970907     Peri.   47.69787     +0.81094863     +0.55615235             
a   1.9581012      Node   277.72782     -0.57617703     +0.70491489             
e   0.4446519      Incl.   10.57264     -0.10189381     +0.44021536             
P   2.74           H   22.88          G   0.15           U   9                  
Residuals in seconds of arc
240729 F51  0.1+  0.1-    240730 L01  0.4-  0.3+    240801 H21  0.1-  0.2+
240729 F51  0.0   0.0     240730 L01  0.7-  0.2+    240801 673  0.3+  0.3+
240729 F51  0.0   0.1+    240730 L01  0.7+  0.2+    240801 H21  0.2-  0.1+
240729 F51  0.3-  0.2+    240730 L01  0.2-  0.1-    240801 H21  0.1-  0.1-
240729 F51  0.2-  0.1+    240731 673  0.1-  0.2+    240801 673  0.2+  0.0
240730 673  0.3+  0.1+    240731 673  0.2+  0.1-    240801 H21  0.1-  0.0
240730 673  0.4+  0.2-    240731 204  0.2+  0.2-
240730 L01  0.7-  0.2-    240731 204  0.2+  0.0

Ephemeris:
2024 OV1                 a,e,i = 1.96, 0.44, 11                  q = 1.0874
Date    TT    R. A. (2000) Decl.     Delta      r    Elong.  Phase     V
2024 07 02    17 30 34.4 -23 34 06   0.2010  1.2103   163.0    14.2    20.6
...
2024 07 17    17 33 35.6 -05 52 32   0.1596  1.1499   144.5    30.9    20.5
...
2024 07 25    17 41 49.9 +05 47 24   0.1500  1.1250   133.9    40.6    20.6
...
2024 07 31    17 51 35.3 +14 40 25   0.1482  1.1101   126.7    47.1    20.7
2024 08 01    17 53 31.9 +16 07 00   0.1483  1.1080   125.6    48.1    20.8
2024 08 02    17 55 34.0 +17 32 33   0.1485  1.1059   124.6    49.1    20.8
...
2024 08 08    18 09 47.4 +25 36 58   0.1520  1.0959   119.0    54.0    21.0
...
2024 08 16    18 34 09.8 +34 42 59   0.1613  1.0885   114.1    58.1    21.2
...
2024 08 31    19 34 41.0 +45 48 17   0.1881  1.0936   111.9    58.9    21.6

M. P. C. Staff               (C) Copyright 2024 MPC           M.P.E.C. 2024-P06





More information about the Iaude mailing list